This is the latest recevied weather packets stored in our database for station/object KK7RJD. If no packets are shown the sender has not sent any weather packets the latest 10 day(s).
| Time | Temp. | Humidity | Pressure | Rain* | Wind** | Luminosity | Snow |
|---|---|---|---|---|---|---|---|
| 1777666496 | 18.33° C | 25% | 1019.7 hPa | 0 mm | - | 862 W/m² | - |
| 1777666193 | 18.33° C | 24% | 1019.7 hPa | 0 mm | - | 866 W/m² | - |
| 1777665890 | 18.33° C | 27% | 1019.7 hPa | 0 mm | - | 874 W/m² | - |
| 1777665587 | 17.78° C | 24% | 1019.7 hPa | 0 mm | - | 882 W/m² | - |
| 1777665284 | 18.33° C | 23% | 1019.8 hPa | 0 mm | - | 889 W/m² | - |
| 1777664979 | 18.33° C | 24% | 1019.7 hPa | 0 mm | - | 891 W/m² | - |
| 1777664675 | 17.78° C | 25% | 1019.8 hPa | 0 mm | - | 896 W/m² | - |
| 1777664371 | 17.22° C | 24% | 1019.7 hPa | 0 mm | - | 897 W/m² | - |
| 1777664070 | 17.78° C | 24% | 1019.9 hPa | 0 mm | - | 902 W/m² | - |
| 1777663767 | 18.33° C | 24% | 1019.9 hPa | 0 mm | - | 909 W/m² | - |
| 1777663464 | 17.78° C | 28% | 1019.9 hPa | 0 mm | - | 911 W/m² | - |
| 1777663162 | 17.78° C | 25% | 1020 hPa | 0 mm | - | 910 W/m² | - |
| 1777662859 | 17.22° C | 27% | 1020.1 hPa | 0 mm | - | 913 W/m² | - |
| 1777662555 | 17.22° C | 25% | 1020.1 hPa | 0 mm | - | 916 W/m² | - |
| 1777662252 | 17.22° C | 24% | 1020 hPa | 0 mm | - | 915 W/m² | - |
| 1777661952 | 16.67° C | 25% | 1020 hPa | 0 mm | - | 914 W/m² | - |
| 1777661649 | 17.22° C | 25% | 1020.1 hPa | 0 mm | - | 910 W/m² | - |
| 1777661344 | 16.67° C | 26% | 1020.2 hPa | 0 mm | - | 912 W/m² | - |
| 1777661040 | 16.67° C | 25% | 1020.2 hPa | 0 mm | - | 910 W/m² | - |
| 1777660735 | 17.22° C | 24% | 1020.2 hPa | 0 mm | - | 906 W/m² | - |
| 1777660433 | 17.22° C | 25% | 1020.3 hPa | 0 mm | - | 903 W/m² | - |
| 1777660130 | 17.22° C | 24% | 1020.6 hPa | 0 mm | - | 901 W/m² | - |
| 1777659826 | 16.67° C | 27% | 1020.5 hPa | 0 mm | - | 898 W/m² | - |
| 1777659523 | 16.67° C | 26% | 1020.6 hPa | 0 mm | - | 893 W/m² | - |
| 1777659220 | 16.11° C | 26% | 1020.6 hPa | 0 mm | - | 891 W/m² | - |
* Rain latest hour (hover to see other rain measurements)
** Current wind speed in m/s (hover to see current wind gust speed)